TimeCST,TemperatureF,Dew PointF,Humidity,Sea Level PressureIn,VisibilityMPH,Wind Direction,Wind SpeedMPH,Gust SpeedMPH,PrecipitationIn,Events,Conditions,WindDirDegrees,DateUTC
12:58 AM,49.6,42.8,77,29.93,10.0,WNW,4.6,-,N/A,,Clear,300,2013-02-27 06:58:00
1:58 AM,48.2,42.3,80,29.93,10.0,NNW,4.6,-,N/A,,Mostly Cloudy,340,2013-02-27 07:58:00
2:58 AM,46.8,41.9,83,29.92,10.0,Calm,Calm,-,N/A,,Scattered Clouds,0,2013-02-27 08:58:00
3:58 AM,45.0,42.4,91,29.93,10.0,SSE,5.8,-,N/A,,Partly Cloudy,160,2013-02-27 09:58:00
4:58 AM,44.2,41.9,91,29.96,10.0,NW,2.3,-,N/A,,Clear,310,2013-02-27 10:58:00
5:58 AM,41.9,41.2,97,29.96,10.0,NW,2.3,-,N/A,,Clear,320,2013-02-27 11:58:00
6:58 AM,42.1,41.4,97,29.97,10.0,Calm,Calm,-,N/A,,Scattered Clouds,0,2013-02-27 12:58:00
7:58 AM,47.1,41.9,82,29.98,10.0,North,1.2,-,N/A,,Clear,10,2013-02-27 13:58:00
8:55 AM,50.7,38.7,63,30.01,9.0,Calm,Calm,-,N/A,,Mostly Cloudy,0,2013-02-27 14:55:00
9:55 AM,55.9,36.7,48,30.02,10.0,WNW,5.8,-,N/A,,Mostly Cloudy,290,2013-02-27 15:55:00
10:55 AM,57.2,35.6,44,30.03,10.0,West,6.9,-,N/A,,Mostly Cloudy,260,2013-02-27 16:55:00
11:55 AM,58.6,35.8,42,30.01,10.0,West,6.9,-,N/A,,Mostly Cloudy,260,2013-02-27 17:55:00
12:57 PM,60.1,36.5,41,29.99,10.0,SW,6.9,-,N/A,,Mostly Cloudy,230,2013-02-27 18:57:00
1:55 PM,62.6,37.6,40,29.96,10.0,SW,10.4,-,N/A,,Mostly Cloudy,230,2013-02-27 19:55:00
2:55 PM,63.9,37.4,38,29.95,10.0,West,13.8,-,N/A,,Scattered Clouds,260,2013-02-27 20:55:00
3:55 PM,62.8,38.3,40,29.94,10.0,West,6.9,-,N/A,,Mostly Cloudy,270,2013-02-27 21:55:00
4:55 PM,61.5,41.2,47,29.95,10.0,SW,9.2,-,N/A,,Mostly Cloudy,220,2013-02-27 22:55:00
5:55 PM,56.5,41.5,57,29.97,10.0,SSW,9.2,-,N/A,,Scattered Clouds,200,2013-02-27 23:55:00
6:53 PM,53.6,41.0,62,29.96,10.0,SSW,8.1,-,N/A,,Clear,210,2013-02-28 00:53:00
6:55 PM,53.8,41.7,64,29.97,10.0,SSW,8.1,-,N/A,,Partly Cloudy,210,2013-02-28 00:55:00
7:55 PM,52.0,41.7,68,29.98,10.0,WSW,4.6,-,N/A,,Partly Cloudy,240,2013-02-28 01:55:00
8:55 PM,52.9,43.2,70,29.98,10.0,WSW,6.9,-,N/A,,Partly Cloudy,240,2013-02-28 02:55:00
9:55 PM,51.8,44.1,75,29.99,10.0,WSW,3.5,-,N/A,,Clear,240,2013-02-28 03:55:00
10:55 PM,50.7,44.6,80,29.98,10.0,West,4.6,-,N/A,,Partly Cloudy,260,2013-02-28 04:55:00
11:55 PM,48.0,43.3,84,29.98,10.0,WNW,3.5,-,N/A,,Partly Cloudy,290,2013-02-28 05:55:00